Tracking 35030 objects as of 11-Aug-2026
HD Live streaming from Space Station
objects crossing your sky now

ONEWEB-0633

Track ONEWEB-0633 now!
10-day predictions
ONEWEB-0633 is classified as:


NORAD ID: 56074
Int'l Code: 2023-043AE
Launch date: March 26, 2023
Source: United Kingdom (UK)
Launch site: SRIHARIKOTA (SRI)
Your satellite tracking list
Your tracking list is empty




NASA's NSSDC Master Catalog

Two Line Element Set (TLE):
1 56074U 23043AE  26223.45683144  .00000097  00000-0  22245-3 0  9998
2 56074  87.8971 248.1760 0002438  87.9047 272.2363 13.15549735163675
Source of the keplerian elements: AFSPC